FW0735 Weather Reports


time (UTC)temp
C
wind
direction
speed
KPH
gust
KPH
rain 1hr
cm
rain 24hr
cm
rain mn
cm
humidity
%
barometer
mb
20260508135507 24 210 11.3 20.9 0.00 0.00 0.00 45 1016.9
20260508135010 24 203 11.3 20.9 0.00 0.00 0.00 46 1017.0
20260508134520 24 195 9.7 20.9 0.00 0.00 0.00 48 1017.0
20260508134047 24 205 12.9 20.9 0.00 0.00 0.00 48 1017.0
20260508132510 24 203 16.1 22.5 0.00 0.00 0.00 48 1017.0
20260508132029 24 197 14.5 24.1 0.00 0.00 0.00 50 1017.0
20260508131012 23 150 16.1 20.9 0.00 0.00 0.00 52 1017.0
20260508130511 23 141 16.1 22.5 0.00 0.00 0.00 53 1017.1
20260508130053 23 133 16.1 22.5 0.00 0.00 0.00 51 1017.1
20260508125506 23 169 16.1 22.5 0.00 0.00 0.00 54 1017.1
20260508124049 23 138 16.1 25.7 0.00 0.00 0.00 56 1017.0
20260508123520 23 131 17.7 27.4 0.00 0.00 0.00 56 1017.0
20260508122541 23 131 20.9 25.7 0.00 0.00 0.00 57 1017.0
20260508122012 23 147 17.7 24.1 0.00 0.00 0.00 62 1017.2
20260508120509 23 154 12.9 17.7 0.00 0.00 0.00 63 1017.2
20260508115004 23 124 14.5 19.3 0.00 0.00 0.00 65 1017.4
20260508114514 23 150 12.9 20.9 0.00 0.00 0.00 65 1017.3
20260508113508 22 129 17.7 22.5 0.00 0.00 0.00 62 1017.3
20260508112511 23 124 17.7 24.1 0.00 0.00 0.00 59 1017.4
20260508112013 23 139 16.1 22.5 0.00 0.00 0.00 61 1017.5
20260508111009 22 129 16.1 24.1 0.00 0.00 0.00 60 1017.4
20260508110028 23 126 14.5 25.7 0.00 0.00 0.00 60 1017.5
20260508105507 23 137 17.7 24.1 0.00 0.00 0.00 57 1017.6
20260508104530 23 129 14.5 22.5 0.00 0.00 0.00 62 1017.7
20260508104009 23 127 17.7 22.5 0.00 0.00 0.00 58 1017.7
20260508102507 23 44 9.7 20.9 0.00 0.00 0.00 57 1017.7
20260508102008 23 146 11.3 20.9 0.00 0.00 0.00 59 1017.7
20260508101534 23 110 14.5 20.9 0.00 0.00 0.00 56 1017.8
20260508101008 23 155 11.3 20.9 0.00 0.00 0.00 55 1017.9
20260508100512 23 126 12.9 22.5 0.00 0.00 0.00 55 1017.9
20260508100028 22 131 16.1 22.5 0.00 0.00 0.00 55 1017.9
20260508095509 22 122 16.1 20.9 0.00 0.00 0.00 53 1018.0
20260508095013 22 127 16.1 20.9 0.00 0.00 0.00 52 1018.0
20260508093512 23 123 16.1 20.9 0.00 0.00 0.00 49 1018.1
20260508093028 23 130 16.1 20.9 0.00 0.00 0.00 48 1018.1
20260508092009 23 97 11.3 19.3 0.00 0.00 0.00 50 1018.2
20260508091519 23 87 9.7 16.1 0.00 0.00 0.00 49 1018.3
20260508091008 24 87 9.7 14.5 0.00 0.00 0.00 49 1018.3
20260508090507 25 110 8.0 14.5 0.00 0.00 0.00 50 1018.3
20260508090022 25 120 6.4 12.9 0.00 0.00 0.00 49 1018.4
20260508085513 25 82 3.2 11.3 0.00 0.00 0.00 44 1018.4
20260508085010 24 80 8.0 11.3 0.00 0.00 0.00 37 1018.5
20260508084524 24 97 6.4 12.9 0.00 0.00 0.00 37 1018.6
20260508084013 24 53 8.0 12.9 0.00 0.00 0.00 36 1018.6
20260508083030 24 119 8.0 9.7 0.00 0.00 0.00 36 1018.6
20260508082509 24 85 6.4 9.7 0.00 0.00 0.00 37 1018.5
20260508082010 24 117 4.8 11.3 0.00 0.00 0.00 38 1018.5
20260508081551 24 100 6.4 14.5 0.00 0.00 0.00 37 1018.6
20260508081013 23 123 8.0 14.5 0.00 0.00 0.00 37 1018.5
20260508080020 23 75 6.4 11.3 0.00 0.00 0.00 44 1018.5
20260508074528 23 74 4.8 14.5 0.00 0.00 0.00 45 1018.6
20260508074006 23 44 8.0 14.5 0.00 0.00 0.00 43 1018.6
20260508073030 23 39 8.0 14.5 0.00 0.00 0.00 34 1018.7
20260508072504 23 52 9.7 14.5 0.00 0.00 0.00 33 1018.6
20260508071513 23 108 8.0 12.9 0.00 0.00 0.00 34 1018.7
20260508070510 23 45 8.0 12.9 0.00 0.00 0.00 36 1018.7
20260508070017 23 80 4.8 12.9 0.00 0.00 0.00 36 1018.6
20260508065507 23 58 6.4 14.5 0.00 0.00 0.00 37 1018.6
20260508065010 23 53 9.7 14.5 0.00 0.00 0.00 35 1018.7
20260508064016 23 95 8.0 16.1 0.00 0.00 0.00 34 1018.7
20260508063513 23 51 4.8 11.3 0.00 0.00 0.00 34 1018.7
20260508063005 23 64 4.8 11.3 0.00 0.00 0.00 36 1018.7
20260508062508 24 56 6.4 11.3 0.00 0.00 0.00 32 1018.8
20260508062004 24 65 3.2 9.7 0.00 0.00 0.00 33 1018.8
20260508061515 24 74 1.6 9.7 0.00 0.00 0.00 33 1018.8
20260508060512 23 324 1.6 11.3 0.00 0.00 0.00 35 1018.8
20260508060015 23 307 3.2 11.3 0.00 0.00 0.00 36 1018.8
20260508055007 23 315 9.7 14.5 0.00 0.00 0.00 36 1018.7
20260508054007 23 288 1.6 11.3 0.00 0.00 0.00 38 1018.6
20260508053511 22 25 4.8 11.3 0.00 0.00 0.00 38 1018.5
20260508053024 22 45 4.8 9.7 0.00 0.00 0.00 38 1018.4
20260508052508 22 306 6.4 9.7 0.00 0.00 0.00 38 1018.5
20260508052010 22 301 4.8 9.7 0.00 0.00 0.00 39 1018.7
20260508051535 22 41 3.2 9.7 0.00 0.00 0.00 41 1018.7
20260508051003 21 308 6.4 9.7 0.00 0.00 0.00 40 1018.5
20260508050503 21 321 4.8 8.0 0.00 0.00 0.00 42 1018.5
20260508050019 21 321 3.2 11.3 0.00 0.00 0.00 44 1018.6
20260508045004 19 347 3.2 6.4 0.00 0.00 0.00 48 1018.5
20260508044514 18 310 1.6 3.2 0.00 0.00 0.00 49 1018.6
20260508044009 18 309 0.0 4.8 0.00 0.00 0.00 50 1018.6
20260508043507 18 328 3.2 4.8 0.00 0.00 0.00 50 1018.5
20260508043019 18 303 0.0 0.0 0.00 0.00 0.00 47 1018.5
20260508042508 18 277 0.0 0.0 0.00 0.00 0.00 48 1018.6
20260508042008 18 275 0.0 3.2 0.00 0.00 0.00 49 1018.5
20260508041523 18 276 0.0 6.4 0.00 0.00 0.00 49 1018.5
20260508041011 17 293 3.2 6.4 0.00 0.00 0.00 48 1018.4
20260508040512 17 281 0.0 0.0 0.00 0.00 0.00 49 1018.4
20260508040012 17 233 0.0 0.0 0.00 0.00 0.00 50 1018.3
20260508035503 17 231 0.0 0.0 0.00 0.00 0.00 48 1018.3
20260508035004 17 234 0.0 0.0 0.00 0.00 0.00 46 1018.3
20260508034512 17 150 0.0 3.2 0.00 0.00 0.00 46 1018.2
20260508034007 17 149 0.0 3.2 0.00 0.00 0.00 47 1018.1
20260508033507 17 168 3.2 3.2 0.00 0.00 0.00 50 1018.1
20260508033022 17 199 0.0 4.8 0.00 0.00 0.00 49 1018.2
20260508032509 17 288 1.6 4.8 0.00 0.00 0.00 49 1018.0
20260508032011 17 290 3.2 4.8 0.00 0.00 0.00 49 1017.9
20260508031529 16 256 3.2 6.4 0.00 0.00 0.00 51 1017.8
20260508031006 17 210 3.2 8.0 0.00 0.00 0.00 51 1017.9
20260508030510 17 260 3.2 9.7 0.00 0.00 0.00 50 1017.9
20260508030028 17 298 8.0 9.7 0.00 0.00 0.00 49 1017.7
20260508025511 17 306 8.0 11.3 0.00 0.00 0.00 49 1017.6
20260508025003 17 317 8.0 11.3 0.00 0.00 0.00 47 1017.6
20260508024507 17 317 8.0 12.9 0.00 0.00 0.00 48 1017.4
20260508024003 17 295 8.0 14.5 0.00 0.00 0.00 49 1017.5
20260508023504 17 306 9.7 14.5 0.00 0.00 0.00 50 1017.4
20260508023023 17 304 11.3 14.5 0.00 0.00 0.00 48 1017.4
20260508022506 17 358 9.7 14.5 0.00 0.00 0.00 48 1017.3
20260508022006 17 331 11.3 14.5 0.00 0.00 0.00 47 1017.3
20260508021517 17 353 8.0 14.5 0.00 0.00 0.00 47 1017.1
20260508021008 17 304 6.4 14.5 0.00 0.00 0.00 46 1017.1
20260508020509 17 333 8.0 14.5 0.00 0.00 0.00 48 1017.1
20260508020022 17 314 8.0 14.5 0.00 0.00 0.00 49 1017.3
20260508015508 17 326 8.0 14.5 0.00 0.00 0.00 45 1017.2
20260508015014 17 311 8.0 17.7 0.00 0.00 0.00 46 1017.1
20260508014543 17 342 9.7 17.7 0.00 0.00 0.00 46 1017.2
20260508014008 17 322 8.0 14.5 0.00 0.00 0.00 46 1017.3
20260508013503 17 345 8.0 17.7 0.00 0.00 0.00 46 1017.2
20260508013011 17 273 11.3 19.3 0.00 0.00 0.00 46 1017.2
20260508012507 17 310 11.3 19.3 0.00 0.00 0.00 47 1017.1
20260508012007 17 300 9.7 20.9 0.00 0.00 0.00 49 1017.2
20260508011518 17 306 16.1 20.9 0.00 0.00 0.00 49 1017.3
20260508011006 17 338 12.9 19.3 0.00 0.00 0.00 50 1017.2
20260508010508 17 304 12.9 16.1 0.00 0.00 0.00 51 1017.2
20260508010031 17 322 9.7 16.1 0.00 0.00 0.00 51 1017.2
20260508005515 17 321 11.3 16.1 0.00 0.00 0.00 52 1017.1
20260508005011 17 330 8.0 16.1 0.00 0.00 0.00 49 1017.1
20260508004529 17 325 11.3 19.3 0.00 0.00 0.00 47 1017.1
20260508004010 17 298 8.0 20.9 0.00 0.00 0.00 51 1017.1
20260508003514 17 308 14.5 20.9 0.00 0.00 0.00 49 1017.1
20260508003051 17 296 12.9 20.9 0.00 0.00 0.00 50 1017.2
20260508002513 17 293 11.3 20.9 0.00 0.00 0.00 48 1017.3
20260508002010 17 303 9.7 17.7 0.00 0.00 0.00 46 1017.3
20260508001512 17 327 6.4 22.5 0.00 0.00 0.00 48 1017.2
20260508001006 17 301 12.9 22.5 0.00 0.00 0.00 49 1017.4
20260508000507 17 302 14.5 24.1 0.00 0.00 0.00 50 1017.4
20260508000017 17 334 16.1 27.4 0.00 0.00 0.00 49 1017.5
20260507235514 17 297 17.7 27.4 0.00 0.00 0.00 48 1017.6
20260507235006 17 304 14.5 20.9 0.00 0.00 0.00 50 1017.5
20260507234523 17 300 12.9 20.9 0.00 0.00 0.00 47 1017.4
20260507234009 17 285 9.7 17.7 0.00 0.00 0.00 46 1017.4
20260507233506 17 315 9.7 17.7 0.00 0.00 0.00 48 1017.4
20260507233032 17 324 8.0 14.5 0.00 0.00 0.00 51 1017.4
20260507232510 17 327 6.4 14.5 0.00 0.00 0.00 56 1017.5
20260507232015 17 324 8.0 16.1 0.00 0.00 0.00 61 1017.6
20260507231531 17 305 8.0 19.3 0.00 0.00 0.00 63 1017.6
20260507231014 17 305 12.9 19.3 0.00 0.00 0.00 63 1017.7
20260507230510 17 300 11.3 19.3 0.00 0.00 0.00 62 1017.6
20260507230017 17 330 11.3 17.7 0.00 0.00 0.00 60 1017.5
20260507225511 17 304 9.7 16.1 0.00 0.00 0.00 60 1017.5
20260507225005 17 310 9.7 14.5 0.00 0.00 0.00 60 1017.5
20260507224520 17 321 8.0 20.9 0.00 0.00 0.00 60 1017.5
20260507224008 17 319 8.0 20.9 0.00 0.00 0.00 61 1017.6
20260507223507 17 306 9.7 19.3 0.00 0.00 0.00 61 1017.7
20260507223026 17 309 8.0 17.7 0.00 0.00 0.00 61 1017.7
20260507222508 17 305 9.7 17.7 0.00 0.00 0.00 61 1017.7
20260507222010 17 330 8.0 22.5 0.00 0.00 0.00 62 1017.7
20260507221003 17 340 11.3 19.3 0.00 0.00 0.00 65 1017.8
20260507220506 17 323 9.7 22.5 0.00 0.00 0.00 65 1017.9
20260507220013 17 317 9.7 22.5 0.00 0.00 0.00 65 1018.0
20260507215506 17 300 9.7 19.3 0.00 0.00 0.00 65 1018.0
20260507215007 17 23 8.0 19.3 0.00 0.00 0.00 66 1018.0
20260507214518 17 328 8.0 19.3 0.00 0.00 0.00 67 1018.1
20260507214005 17 32 9.7 19.3 0.00 0.00 0.00 67 1018.2
20260507213509 17 302 9.7 19.3 0.00 0.00 0.00 69 1018.3
20260507213020 17 310 8.0 17.7 0.00 0.00 0.00 69 1018.3
20260507212508 17 326 11.3 19.3 0.00 0.00 0.00 69 1018.3
20260507212009 17 302 8.0 19.3 0.00 0.00 0.00 70 1018.3
20260507211526 17 300 9.7 17.7 0.00 0.00 0.00 70 1018.3
20260507211010 17 330 9.7 17.7 0.00 0.00 0.00 70 1018.3
20260507210503 17 311 8.0 22.5 0.00 0.00 0.00 70 1018.3
20260507210011 17 326 9.7 22.5 0.00 0.00 0.00 71 1018.4
20260507205503 17 331 12.9 27.4 0.00 0.00 0.00 71 1018.4
20260507205006 17 329 12.9 30.6 0.00 0.00 0.00 71 1018.4
20260507204514 17 300 14.5 30.6 0.00 0.00 0.00 71 1018.4
20260507204005 17 331 11.3 25.7 0.00 0.00 0.00 71 1018.3
20260507203509 17 309 9.7 25.7 0.00 0.00 0.00 71 1018.4
20260507203019 17 330 11.3 25.7 0.00 0.00 0.00 70 1018.4
20260507202509 18 290 14.5 25.7 0.00 0.00 0.00 70 1018.4
20260507202009 18 280 12.9 22.5 0.00 0.00 0.00 70 1018.4
20260507201527 18 312 12.9 20.9 0.00 0.00 0.00 69 1018.4
20260507201007 18 319 9.7 20.9 0.00 0.00 0.00 67 1018.4
20260507200510 18 335 11.3 22.5 0.00 0.00 0.00 66 1018.4
20260507200027 18 307 8.0 22.5 0.00 0.00 0.00 66 1018.4
20260507195507 18 319 9.7 19.3 0.00 0.00 0.00 67 1018.3
20260507195003 18 325 9.7 16.1 0.00 0.00 0.00 67 1018.3
20260507194511 18 295 8.0 22.5 0.00 0.00 0.00 68 1018.4
20260507194003 18 318 11.3 22.5 0.00 0.00 0.00 67 1018.4
20260507193506 18 302 12.9 20.9 0.00 0.00 0.00 66 1018.4
20260507193014 18 328 8.0 20.9 0.00 0.00 0.00 64 1018.4
20260507192505 18 327 9.7 20.9 0.00 0.00 0.00 65 1018.4
20260507192014 18 302 8.0 20.9 0.00 0.00 0.00 65 1018.4
20260507191520 18 302 9.7 20.9 0.00 0.00 0.00 66 1018.4
20260507191007 18 344 6.4 14.5 0.00 0.00 0.00 66 1018.4
20260507190510 18 314 8.0 16.1 0.00 0.00 0.00 66 1018.4
20260507190027 18 328 6.4 16.1 0.00 0.00 0.00 66 1018.3
20260507185509 18 312 8.0 16.1 0.00 0.00 0.00 65 1018.4
20260507185011 18 323 6.4 16.1 0.00 0.00 0.00 65 1018.3
20260507184525 18 304 6.4 12.9 0.00 0.00 0.00 65 1018.3
20260507184007 18 327 4.8 11.3 0.00 0.00 0.00 65 1018.2
20260507183504 18 317 3.2 11.3 0.00 0.00 0.00 65 1018.3
20260507183040 18 322 4.8 9.7 0.00 0.00 0.00 65 1018.3
20260507182505 18 330 3.2 16.1 0.00 0.00 0.00 65 1018.2
20260507182009 18 302 3.2 16.1 0.00 0.00 0.00 65 1018.2
20260507181515 18 317 6.4 16.1 0.00 0.00 0.00 65 1018.2
20260507181005 18 325 8.0 16.1 0.00 0.00 0.00 65 1018.2
20260507180511 18 18 6.4 12.9 0.00 0.00 0.00 66 1018.1
20260507180021 18 356 3.2 11.3 0.00 0.00 0.00 67 1018.0
20260507175511 18 23 3.2 12.9 0.00 0.00 0.00 70 1018.0
20260507175007 18 7 4.8 12.9 0.00 0.00 0.00 70 1018.0
20260507174523 18 317 4.8 11.3 0.00 0.00 0.00 71 1017.9
20260507174009 18 323 4.8 11.3 0.00 0.00 0.00 72 1017.9
20260507173509 18 303 6.4 9.7 0.00 0.00 0.00 73 1017.9
20260507173031 18 283 8.0 11.3 0.00 0.00 0.00 72 1017.8
20260507172509 18 297 8.0 14.5 0.00 0.00 0.00 72 1017.9
20260507172006 18 298 8.0 16.1 0.00 0.00 0.00 73 1017.9
20260507171511 18 264 12.9 16.1 0.00 0.00 0.00 72 1017.9
20260507171008 18 249 11.3 16.1 0.00 0.00 0.00 72 1017.9
20260507170507 18 249 11.3 12.9 0.00 0.00 0.00 70 1017.9
20260507170017 18 253 8.0 9.7 0.00 0.00 0.00 70 1017.8
20260507165510 18 243 8.0 11.3 0.00 0.00 0.00 70 1017.7
20260507165014 18 238 6.4 12.9 0.00 0.00 0.00 70 1017.6
20260507164524 18 232 9.7 16.1 0.00 0.00 0.00 70 1017.7
20260507164010 19 233 9.7 16.1 0.00 0.00 0.00 69 1017.7
20260507163507 19 245 12.9 16.1 0.00 0.00 0.00 68 1017.8
20260507163028 19 223 11.3 16.1 0.00 0.00 0.00 67 1017.8
20260507162510 20 232 11.3 14.5 0.00 0.00 0.00 66 1017.7
20260507162018 20 210 8.0 16.1 0.00 0.00 0.00 64 1017.7
20260507161527 20 203 11.3 16.1 0.00 0.00 0.00 63 1017.7
20260507161009 21 175 8.0 12.9 0.00 0.00 0.00 61 1017.6
20260507160529 21 248 8.0 14.5 0.00 0.00 0.00 59 1017.6
20260507160015 21 219 11.3 14.5 0.00 0.00 0.00 60 1017.6
20260507155509 21 248 9.7 14.5 0.00 0.00 0.00 60 1017.6
20260507155011 21 221 11.3 14.5 0.00 0.00 0.00 59 1017.6
20260507154520 21 213 9.7 14.5 0.00 0.00 0.00 60 1017.5
20260507154010 21 247 11.3 14.5 0.00 0.00 0.00 58 1017.5
20260507153507 21 190 8.0 14.5 0.00 0.00 0.00 59 1017.6
20260507153031 21 235 11.3 17.7 0.00 0.00 0.00 58 1017.6
20260507152512 21 250 11.3 17.7 0.00 0.00 0.00 58 1017.5
20260507152007 21 233 11.3 17.7 0.00 0.00 0.00 57 1017.6
20260507151526 21 220 11.3 14.5 0.00 0.00 0.00 57 1017.7
20260507151010 21 206 6.4 14.5 0.00 0.00 0.00 53 1017.6
20260507150513 21 159 9.7 16.1 0.00 0.00 0.00 53 1017.6
20260507150026 21 182 9.7 16.1 0.00 0.00 0.00 54 1017.6
20260507145507 21 214 12.9 16.1 0.00 0.00 0.00 53 1017.6
20260507145005 21 131 4.8 9.7 0.00 0.00 0.00 52 1017.6
20260507144520 22 210 3.2 11.3 0.00 0.00 0.00 52 1017.7
20260507144007 22 207 8.0 11.3 0.00 0.00 0.00 51 1017.6
20260507143510 21 180 6.4 11.3 0.00 0.00 0.00 51 1017.7
20260507143026 21 143 8.0 16.1 0.00 0.00 0.00 51 1017.7
20260507142508 21 227 11.3 16.1 0.00 0.00 0.00 51 1017.8
20260507142010 21 205 8.0 12.9 0.00 0.00 0.00 52 1017.8